Presure
374 369 365 372 357 343 342 342 352 365 375 437 459 552 298 333 197 321 295 293 244 148 253 241 242 181 176 234 218 220 216 197 157 202 163 185 179 207 213 212 208 215 182 285 270 244 209 199 213 213 215 211 209 199
377 373 359 357 355 210 351 354 357 140 387 426 157 247 369 325 212 283 313 273 285 262 241 157 140 231 161 238 228 220 195 159 207 162 187 150 213 174 219 225 230 253 258 280 269 242 214 201 201 223 212 202 210 207
354 352 353 352 350 350 124 374 287 413 151 307 125 438 134 323 206 310 308 272 285 281 236 230 242 232 226 235 233 212 210 212 211 202 215 152 163 173 215 222 244 251 259 289 272 239 221 207 207 196 209 210 212 215
366 361 364 362 365 370 236 401 276 243 138 137 279 238 338 233 238 293 291 212 270 212 249 217 236 226 163 189 212 185 151 203 211 220 196 198 165 221 173 177 208 253 274 285 273 243 229 215 203 210 206 212 210 204
381 372 369 398 410 386 383 117 389 166 341 439 473 292 332 189 125 278 289 223 174 195 231 236 233 181 153 227 155 153 186 223 223 182 166 219 217 198 220 205 229 262 286 278 267 251 230 218 200 211 212 213 207 204
402 397 394 385 377 377 384 430 416 424 429 446 366 340 281 276 286 287 278 149 142 134 146 198 228 224 160 154 216 218 224 198 213 217 155 206 224 242 220 246 262 250 283 272 256 250 230 217 216 209 208 208 208 202
419 408 395 388 382 380 389 434 442 441 453 365 340 304 282 284 283 251 265 263 186 270 240 245 213 153 222 221 152 166 218 211 181 220 215 169 159 165 207 191 190 235 269 264 257 247 229 219 217 211 199 211 202 197
507 457 437 425 412 398 409 435 453 477 380 338 307 282 283 279 276 263 261 211 220 207 260 274 257 228 228 221 243 222 215 219 212 214 208 174 195 230 225 226 222 221 265 257 257 251 234 220 216 209 205 207 206 205
377 539 543 484 470 464 442 466 485 357 329 299 288 289 278 269 259 270 257 253 244 262 261 260 251 266 248 232 233 218 226 227 244 242 245 243 232 231 239 237 234 223 250 257 254 252 241 223 215 211 215 206 207 206
311 359 554 565 546 554 558 539 324 320 319 283 281 276 265 253 255 256 259 260 258 249 251 244 239 241 255 258 263 255 252 243 256 248 259 248 239 239 239 245 251 258 256 251 245 255 244 225 217 215 218 209 207 209
284 304 317 476 547 532 353 326 329 333 289 284 270 263 248 250 254 250 240 264 252 253 257 262 252 250 253 251 253 263 273 270 246 255 266 268 272 282 233 240 275 260 250 244 251 250 243 231 214 218 216 214 212 210
253 310 294 297 293 288 290 329 287 292 282 271 266 252 255 246 247 248 244 243 253 244 255 246 235 242 251 249 256 246 247 250 227 221 299 295 289 298 283 262 248 239 244 244 242 242 241 234 214 218 220 215 215 216
276 274 301 311 282 279 281 272 280 286 281 270 257 249 255 234 249 251 264 267 251 246 247 246 247 258 255 253 254 232 253 250 253 273 264 273 267 256 253 244 239 246 259 247 240 236 233 228 215 222 220 220 217 171
242 254 243 244 246 271 279 271 272 247 275 280 261 264 253 245 256 255 250 241 251 252 257 261 244 239 260 250 252 257 253 254 233 250 247 247 241 233 237 255 263 263 259 247 238 234 233 231 228 224 222 177 211 201
253 256 237 243 252 253 278 284 263 258 245 253 254 259 262 255 254 256 247 262 249 229 255 260 266 265 265 265 264 266 269 260 243 234 236 247 244 249 243 244 242 242 245 248 243 236 233 231 227 218 223 207 233 241
239 245 252 255 249 244 248 245 266 271 273 282 259 248 269 251 286 237 296 274 283 270 269 258 250 249 246 255 251 246 245 242 238 235 240 251 255 252 248 243 239 238 240 242 243 243 240 240 250 252 258 259 254 251
240 245 241 246 247 254 249 255 247 254 251 237 263 263 261 248 231 248 250 255 252 246 242 243 246 249 253 252 246 242 242 237 235 233 232 229 234 234 236 239 246 245 245 249 252 249 248 249 249 250 247 245 244 241
258 267 261 253 231 238 243 254 249 249 251 253 251 253 254 254 240 239 244 245 248 246 240 235 237 258 255 248 247 243 237 238 241 240 238 235 233 232 226 226 230 235 242 241 235 235 237 235 234 239 242 242 236 229
245 253 260 263 257 263 266 252 257 251 245 234 248 244 252 246 251 253 255 250 253 257 255 247 255 268 256 244 240 240 239 235 234 239 236 235 232 231 232 229 228 229 231 233 234 231 230 233 228 228 230 232 236 240
246 229 252 257 257 251 247 261 260 262 267 267 267 257 255 250 254 254 254 223 234 252 255 258 255 252 248 247 243 241 242 237 235 234 233 234 235 235 230 229 228 226 226 233 239 237 233 233 233 236 239 242 247 246
237 241 256 253 249 256 266 250 261 265 262 261 255 251 266 266 257 254 252 246 242 242 242 242 243 249 249 246 247 248 249 247 243 245 245 243 238 237 236 236 238 237 237 235 227 235 238 239 244 250 248 248 255 258
239 252 255 262 254 250 251 257 263 255 257 254 255 256 249 247 250 246 244 248 248 242 247 249 247 243 242 243 245 245 245 245 245 244 240 239 236 235 237 239 239 239 240 243 247 247 249 251 252 255 259 259 262 273
261 237 247 247 250 250 259 260 245 248 242 255 259 264 243 256 256 255 248 247 246 248 248 246 248 249 252 253 254 255 253 253 249 247 246 246 245 246 247 249 248 248 250 255 258 259 261 262 266 274 280 278 282 287
248 262 250 245 256 254 248 249 253 255 261 253 250 250 251 259 260 225 230 255 257 256 253 253 250 249 250 249 248 248 248 248 251 253 254 256 258 259 261 260 261 261 266 271 274 283 281 276 274 284 285 281 288 289
250 241 254 261 244 251 240 239 251 254 260 257 257 256 258 262 264 266 264 263 267 272 269 268 266 263 260 261 261 261 261 263 266 270 274 277 281 281 278 276 273 266 268 272 278 282 284 284 295 294 299 290 302 308
257 258 262 263 261 261 259 258 262 259 241 251 255 250 257 255 251 253 264 261 257 255 254 257 258 263 270 274 269 271 265 268 268 270 271 271 271 271 272 274 278 282 286 290 294 308 316 314 307 305 308 313 308 311
285 278 272 279 270 273 269 267 267 269 266 264 258 265 267 264 261 258 256 251 250 253 259 259 263 265 267 259 261 266 271 275 280 276 261 261 263 268 272 306 322 321 304 304 297 311 316 311 305 310 319 332 381 391
352 355 358 353 345 351 303 304 296 276 268 267 272 277 280 278 274 275 277 274 277 276 261 278 279 281 284 281 291 302 291 292 314 320 321 319 315 311 310 310 306 307 305 303 307 316 323 326 332 402 406 398 390 384
329 339 346 336 327 325 332 333 333 335 330 331 330 334 339 284 285 280 284 287 293 289 280 282 286 301 326 324 320 310 309 307 298 297 298 301 299 301 303 306 309 313 322 337 349 381 408 183 186 385 385 387 390 387
329 336 337 340 341 345 336 332 331 328 328 329 325 326 328 332 336 341 347 342 334 334 334 331 325 315 315 314 311 309 304 304 304 304 303 308 315 334 353 348 349 375 408 401 395 389 211 154 395 393 389 417 436 472
365 390 373 338 343 341 340 340 339 339 336 329 326 322 327 333 337 336 335 333 332 328 328 327 328 328 325 323 325 327 325 328 347 347 351 346 384 408 402 397 392 392 395 399 401 452 456 483 487 491 493 496 501 504
381 379 379 380 329 342 329 377 374 371 360 343 342 347 341 328 322 325 325 328 330 329 329 330 331 330 320 320 332 326 325 350 406 401 396 391 387 392 398 406 494 499 493 486 510 512 513 512 512 509 500 488 480 476
394 397 402 398 401 382 376 372 373 376 374 372 370 362 351 350 349 349 353 362 362 414 411 413 411 406 402 398 396 394 387 381 377 381 390 409 480 449 428 423 460 507 524 525 526 524 520 507 490 482 481 484 486 491
Wind_Speed
27 33 33 38 45 47 48 49 46 42 39 43 48 65 70 95 51 93 85 86 75 38 75 77 77 51 44 80 70 71 70 52 34 60 33 37 44 53 51 48 43 41 38 37 41 42 43 44 49 46 45 45 46 48
25 33 34 38 42 36 47 48 41 31 41 46 24 43 89 91 51 74 84 75 81 78 71 42 25 77 39 74 74 71 58 39 62 33 48 29 65 38 60 58 56 54 40 37 43 43 45 49 50 49 47 47 50 51
26 29 33 37 39 39 14 41 32 42 43 42 27 86 17 87 52 78 78 72 73 75 74 67 74 73 73 65 68 65 63 65 65 61 69 34 39 41 60 61 61 53 48 39 44 46 49 51 51 47 51 52 52 53
18 23 25 28 31 33 24 36 32 33 29 26 39 50 87 53 52 73 70 48 67 54 74 65 73 71 41 54 66 51 29 62 68 69 58 52 39 63 41 41 47 50 45 42 44 51 50 51 51 55 54 53 53 55
18 16 15 15 28 34 31 16 40 34 46 57 56 72 84 29 26 67 69 54 23 47 53 71 66 52 38 66 40 36 45 67 67 46 38 63 63 52 66 44 48 43 43 45 46 50 51 52 52 56 56 55 57 58
22 23 25 27 35 34 32 45 46 54 54 58 87 86 71 69 69 68 63 23 22 24 23 45 65 66 48 40 67 63 64 55 66 66 31 61 67 57 48 54 49 45 39 43 48 51 52 52 56 56 55 57 59 61
20 22 26 29 32 33 31 34 43 47 50 86 82 76 68 67 64 52 54 57 44 47 62 63 59 39 66 67 40 42 64 62 52 65 61 40 35 33 39 43 45 43 41 43 48 53 55 55 56 57 58 57 62 63
20 22 25 29 31 32 34 32 35 39 88 83 78 70 69 68 65 60 58 38 44 35 50 47 55 69 67 66 62 63 62 65 64 65 43 42 50 51 39 49 52 52 47 48 50 54 58 58 58 59 62 63 65 66
61 19 24 32 34 34 37 36 36 80 82 78 73 74 70 64 57 62 57 57 52 55 52 50 53 50 58 60 64 65 67 67 57 63 68 72 73 60 58 53 59 57 58 55 55 56 59 59 60 63 67 67 68 70
53 58 30 27 31 34 37 38 77 79 81 71 74 77 71 65 60 56 52 51 55 59 57 58 58 58 56 57 52 56 59 59 60 61 71 74 72 70 67 71 69 62 56 57 58 56 60 62 64 66 69 71 71 74
47 50 58 48 45 49 68 69 72 78 73 78 74 71 67 65 67 66 61 60 54 52 50 46 49 51 50 52 54 52 46 51 54 58 66 66 65 66 60 61 52 54 56 59 57 58 61 67 64 69 73 75 76 76
40 45 46 53 57 58 56 61 59 67 67 65 64 59 60 57 56 57 54 49 50 47 45 47 51 50 54 55 54 50 45 44 50 51 44 47 47 45 49 50 53 56 56 56 57 60 62 66 68 72 76 77 79 80
43 41 46 46 47 51 59 57 61 67 78 75 68 61 64 51 64 62 55 57 52 52 53 54 52 52 52 53 50 44 39 37 39 32 35 32 38 43 47 52 54 52 53 57 60 63 67 71 71 75 77 79 80 55
25 32 31 35 38 42 48 53 59 36 58 74 62 71 57 40 50 46 48 47 48 47 49 51 45 39 53 45 43 41 37 40 36 30 36 40 44 50 51 48 47 49 53 58 63 67 70 73 76 78 80 57 80 72
22 27 25 29 34 36 41 43 45 46 37 44 45 49 51 44 46 45 36 43 41 37 41 44 45 46 45 46 44 40 33 31 37 44 45 42 45 45 48 49 51 54 57 61 67 69 71 74 77 79 82 71 89 92
17 17 16 21 24 30 35 33 39 37 42 53 46 33 52 27 46 32 40 44 38 37 36 39 40 41 41 38 37 37 37 41 43 47 46 42 46 50 53 55 57 59 60 63 66 70 73 76 77 79 80 81 83 85
12 13 16 16 16 19 24 27 33 35 39 39 34 36 37 37 39 38 34 32 36 38 39 40 41 43 42 40 44 46 47 49 50 50 52 55 53 53 54 55 55 57 60 62 62 65 68 71 74 76 79 82 84 88
16 19 22 20 21 20 18 20 23 23 24 27 29 30 31 33 40 40 38 42 45 47 47 47 47 44 45 44 45 46 50 50 50 51 54 56 58 58 62 63 64 64 64 65 68 71 73 75 78 80 83 85 86 88
16 16 19 23 25 28 30 27 27 28 28 29 31 31 35 36 39 43 44 44 44 44 43 45 43 41 45 47 49 50 52 54 55 55 57 59 62 63 64 65 66 68 69 71 73 76 78 79 81 84 86 89 92 96
25 22 22 23 26 28 27 29 31 32 35 37 40 41 42 43 42 42 42 41 43 40 39 41 42 45 47 49 53 55 57 59 60 62 64 65 67 67 67 69 69 71 73 76 77 79 81 84 86 89 92 94 97 100
29 29 31 30 28 28 30 30 31 33 35 35 37 38 41 45 44 44 45 45 46 47 47 48 49 49 52 54 56 59 60 62 65 67 68 69 70 71 72 74 75 77 79 80 77 84 88 91 93 96 97 99 103 105
35 33 33 33 37 36 35 35 36 38 40 41 44 46 47 47 48 48 49 50 51 51 53 55 57 58 59 61 62 64 65 67 68 69 70 71 73 74 77 79 81 83 85 88 90 92 94 97 98 101 104 106 110 114
41 37 39 40 40 39 40 42 42 43 44 45 47 49 48 51 52 53 53 55 57 59 60 61 63 64 65 66 67 68 70 71 73 74 75 77 78 81 84 85 86 89 91 94 96 98 100 101 104 107 108 109 113 116
46 48 48 44 47 47 47 47 48 48 49 52 53 53 53 56 56 46 48 60 62 64 66 67 68 68 69 70 72 73 75 76 79 81 83 84 86 87 89 90 92 94 96 98 100 103 102 102 103 109 110 109 113 114
55 50 54 55 51 53 46 46 53 54 55 56 56 56 57 58 60 62 62 63 64 67 69 71 72 73 74 76 78 80 81 83 86 88 90 91 92 91 92 92 93 93 95 98 102 105 108 110 115 112 114 112 115 118
56 60 64 64 64 64 64 63 62 61 52 59 63 60 61 61 59 61 67 66 65 64 64 67 69 72 77 79 79 81 80 82 83 85 87 87 87 89 91 95 99 103 106 108 110 112 112 111 110 112 115 116 115 117
78 74 72 75 72 74 72 72 72 72 72 73 68 72 73 71 70 69 68 65 66 69 72 73 76 78 81 78 80 85 88 90 94 90 80 81 84 89 94 101 102 103 99 104 106 110 112 111 111 114 116 119 98 92
48 48 50 56 62 63 79 81 82 78 73 73 78 83 84 84 81 81 82 81 83 81 73 80 80 82 83 81 85 89 88 90 87 86 87 88 89 92 95 98 99 101 102 104 108 112 114 115 116 87 84 85 88 89
48 48 48 52 56 59 60 61 63 64 68 69 71 72 74 76 81 80 83 84 91 89 80 83 88 96 89 86 86 88 86 85 83 84 86 89 91 94 97 100 103 105 110 113 111 97 81 34 38 87 88 89 89 90
48 48 48 48 49 50 53 56 58 61 62 64 65 65 66 67 68 70 73 78 81 81 82 83 83 82 84 86 85 85 83 85 86 89 90 95 100 101 101 102 103 91 75 77 80 82 42 33 85 86 87 84 83 77
37 32 38 47 48 48 49 50 53 55 57 59 60 61 61 61 62 64 66 68 69 70 72 75 77 80 83 84 87 91 94 95 92 93 94 95 74 64 67 70 72 74 76 77 78 73 73 69 68 67 66 65 63 60
31 33 34 35 44 44 49 41 44 47 51 55 56 56 59 60 60 61 63 65 67 68 71 74 76 78 78 78 81 81 82 81 54 56 58 61 63 64 65 67 58 58 59 61 58 57 57 56 56 54 54 55 56 56
23 24 25 29 30 36 38 41 42 43 45 48 49 51 53 54 54 56 57 56 57 41 41 40 41 42 43 44 46 47 49 52 54 55 56 54 47 49 51 53 52 52 51 51 51 49 48 48 49 51 51 51 51 50
Wind_Direction
167 178 189 181 189 200 207 214 218 220 222 207 202 173 196 200 207 207 209 212 215 222 212 216 217 223 224 235 235 238 242 242 245 254 231 241 257 268 274 275 278 279 267 259 253 249 263 270 268 268 269 274 275 276
155 158 162 171 186 204 210 217 220 183 200 198 176 191 188 195 199 203 206 207 211 210 210 218 206 223 220 228 229 233 233 240 248 239 248 252 268 255 278 281 287 291 285 257 250 250 259 265 270 267 272 274 273 277
158 168 176 185 196 204 214 220 197 190 189 189 187 183 189 189 201 197 201 203 207 209 207 211 212 219 225 227 231 235 240 245 249 251 258 253 255 257 276 280 286 287 282 254 249 249 254 263 268 275 272 274 276 278
162 171 180 189 198 202 198 179 191 192 193 201 190 181 180 190 186 192 195 196 202 210 203 210 212 217 226 222 229 237 249 242 248 253 251 257 249 271 251 264 269 279 273 260 248 243 251 260 268 268 272 272 275 278
188 189 184 188 163 157 168 217 160 195 174 175 178 179 176 189 200 188 192 194 216 213 204 208 210 218 229 221 240 250 241 239 243 245 245 258 262 259 269 263 270 276 265 253 249 244 251 258 266 267 271 274 276 278
154 149 151 153 157 160 161 159 164 169 171 176 164 168 172 175 178 183 190 204 205 209 242 215 208 213 230 243 226 231 234 242 246 249 248 255 261 265 258 264 267 269 259 251 250 247 251 256 259 265 269 273 276 280
151 156 157 162 162 160 155 158 173 179 176 159 160 162 167 170 174 180 184 192 221 194 201 205 212 230 218 221 242 241 234 239 244 249 252 257 264 268 265 258 260 269 262 256 250 248 251 256 259 262 270 269 272 278
154 172 169 169 166 157 151 155 166 178 154 155 156 161 162 167 172 178 183 185 197 201 203 202 205 215 220 225 227 232 237 240 246 251 241 258 262 262 272 265 266 268 267 259 254 249 249 258 262 265 268 270 273 276
59 131 168 177 179 169 152 162 167 150 150 153 153 155 160 166 176 177 182 189 195 196 199 202 210 197 214 226 231 232 236 240 235 236 238 237 256 270 267 267 267 264 268 259 256 253 252 258 263 266 268 275 276 279
80 69 121 152 157 158 164 159 143 147 149 149 150 154 160 171 173 179 183 191 195 197 200 208 212 216 220 219 220 231 235 241 239 242 234 242 253 259 263 264 263 259 255 256 259 257 256 259 264 267 268 272 277 280
82 90 96 108 115 130 130 137 142 144 145 148 153 157 169 174 172 176 189 202 200 204 204 202 210 217 219 225 230 235 238 240 243 249 248 246 249 250 257 259 248 248 253 258 259 258 257 259 266 267 269 272 276 280
99 84 101 109 115 119 122 131 137 142 145 151 154 161 169 176 182 188 195 191 199 206 211 215 217 223 226 228 225 225 231 235 236 244 247 246 246 246 243 244 248 253 257 260 262 262 262 262 268 269 270 275 278 282
92 94 93 103 120 128 130 136 140 148 151 157 162 173 176 191 188 194 198 197 201 206 210 215 220 225 229 232 236 236 244 250 257 249 253 251 247 246 247 250 254 259 255 257 260 262 264 266 272 271 275 278 283 293
110 108 119 125 128 128 136 141 148 155 158 163 169 175 185 187 193 197 197 199 202 211 217 221 226 233 234 243 248 251 252 250 249 250 251 249 249 252 256 260 259 258 258 259 261 263 265 267 270 274 276 291 286 292
105 110 133 130 130 133 124 140 153 159 163 172 179 187 191 193 199 204 204 207 212 213 226 231 234 238 241 244 248 251 246 240 241 245 249 252 254 256 259 261 261 262 262 262 262 265 268 271 273 277 279 286 283 284
125 119 120 132 146 154 150 152 148 158 170 177 186 197 201 203 209 203 210 215 212 217 220 222 228 232 233 235 232 234 237 236 237 244 249 251 251 253 257 260 264 266 268 269 270 270 272 274 278 281 283 284 286 288
163 161 160 160 160 165 166 168 175 173 177 184 178 182 186 195 208 200 201 207 210 215 220 225 229 234 234 231 234 233 235 241 244 247 250 254 257 260 262 265 266 268 270 272 274 275 277 278 281 284 285 287 289 290
180 177 185 191 180 177 178 192 191 194 199 201 199 197 199 203 206 210 213 215 216 218 223 230 235 237 237 237 239 239 243 245 249 251 254 257 259 261 263 266 268 272 276 278 279 281 283 284 286 287 288 289 291 294
212 202 191 191 196 203 207 202 213 213 212 213 217 223 226 224 224 224 226 228 230 232 232 234 237 236 236 241 245 247 250 252 255 258 259 261 263 264 267 269 273 276 278 280 281 282 284 286 287 288 291 293 294 294
219 208 216 207 207 209 205 208 207 212 218 218 218 219 221 226 231 235 239 235 237 245 245 246 243 242 242 244 247 249 251 253 257 260 262 265 267 269 273 275 277 279 280 281 283 284 285 287 289 290 291 293 293 294
220 225 228 224 222 221 225 223 218 215 212 217 223 226 228 228 230 234 239 241 243 244 246 248 248 249 250 251 253 255 256 257 258 260 263 266 269 272 275 277 279 280 282 283 286 286 287 288 289 290 291 292 293 294
233 227 226 227 227 230 227 226 230 228 226 226 224 226 230 232 233 236 240 242 247 251 253 253 254 256 257 258 258 259 261 262 264 267 270 272 273 275 276 277 278 279 281 283 284 285 287 288 289 290 291 293 293 294
228 233 233 234 238 240 235 234 237 236 237 236 236 236 240 236 236 239 243 246 248 248 250 253 254 257 258 260 262 263 265 266 268 270 271 273 275 276 278 279 280 281 282 283 284 285 287 288 289 290 291 292 293 294
239 231 237 242 235 235 240 242 242 242 242 243 245 245 245 244 244 254 254 247 249 251 254 256 259 261 263 264 266 268 270 272 272 273 274 275 275 277 278 279 280 281 282 283 285 287 287 289 291 292 293 295 296 297
244 249 244 241 247 243 249 252 248 246 245 249 249 250 252 254 256 258 259 259 260 259 260 261 262 262 264 266 268 269 271 273 274 276 277 278 279 280 282 283 284 285 287 288 289 291 291 291 292 293 294 296 296 297
244 247 249 249 250 249 249 251 247 245 253 250 250 253 252 254 257 258 259 261 263 264 265 267 268 270 272 273 273 275 275 277 277 278 279 281 282 284 285 287 288 288 288 288 289 290 291 292 293 294 295 296 296 297
250 250 250 250 249 250 251 252 252 251 251 252 254 254 254 254 255 257 260 263 265 267 267 269 270 271 272 274 276 276 277 277 278 279 282 284 285 287 287 287 287 288 289 289 290 292 292 293 294 294 295 296 296 296
244 244 243 245 247 246 252 252 251 251 253 255 256 256 256 257 258 259 260 262 263 266 267 269 272 272 273 272 276 277 276 277 279 280 281 282 283 284 285 285 286 288 289 291 292 292 293 294 294 295 295 295 296 297
249 248 247 247 248 250 249 249 250 250 252 253 255 256 256 259 259 261 262 263 264 264 268 270 272 274 273 273 274 275 277 279 280 282 283 284 285 286 286 287 288 289 289 290 292 293 295 311 313 296 296 297 297 297
250 250 250 250 249 248 249 250 250 251 251 252 253 255 257 258 258 259 260 261 263 266 267 268 268 270 272 273 275 276 278 279 281 282 284 285 285 287 288 289 290 292 295 295 295 295 306 319 296 296 296 297 296 297
254 254 250 250 250 249 249 249 250 251 251 252 252 254 257 258 259 261 262 263 264 266 267 269 271 273 274 276 277 277 278 280 282 283 284 285 290 294 294 295 295 296 297 297 297 298 298 299 299 299 300 301 302 302
253 251 251 252 251 252 253 253 253 252 252 253 254 256 258 259 261 263 264 266 267 267 269 270 271 273 275 276 278 279 282 283 294 294 295 295 295 297 299 300 305 305 304 304 304 304 304 305 306 306 306 305 304 304
257 257 257 257 256 255 255 257 257 258 257 259 260 260 261 262 263 265 266 268 270 280 281 283 285 286 286 288 289 291 292 292 293 296 300 303 311 311 310 310 313 313 313 312 313 313 312 311 310 310 309 309 308 308